Regional Weather Roundup
Issued by NWS

Home | Current Version | Previous Version | Text Only | Print | Product List | Glossary Off
Versions: 1 2 3 4 5 6 7 8 9 10 11 12 13 14 15 16 17 18 19 20 21 22 23 24 25 26 27 28 29 30 31 32 33 34 35 36 37 38 39 40 41 42 43 44 45 46 47 48 49 50

000
ASUS43 KMPX 220010
RWRMN
WEATHER ROUNDUP FOR MINNESOTA
NATIONAL WEATHER SERVICE TWIN CITIES/CHANHASSEN MN
700 PM CDT MON JUL 21 2014


NOTE: "FAIR" INDICATES FEW OR NO CLOUDS BELOW 12,000 FEET WITH NO
SIGNIFICANT WEATHER AND/OR OBSTRUCTIONS TO VISIBILITY. N/A MEANS
CURRENT SKY AND/OR WEATHER CONDITIONS ARE NOT AVAILABLE.

MNZ060>063-068>070-220100-
   Twin Cities Metro

CITY           SKY/WX    TMP DP  RH WIND       PRES   REMARKS
TWIN CITIES    PTSUNNY   88  74  63 S16       29.86S HX  96
6HR MIN TEMP:  87; 6HR MAX TEMP:  92;

ST PAUL        CLOUDY    86  76  71 SE7       29.85F HX  96
CRYSTAL        CLOUDY    88  75  65 SE10      29.84S HX  97
BLAINE         PTSUNNY   88  77  70 SE12G18   29.85F HX 100
LAKEVILLE      MOSUNNY   84  73  70 S8        29.87R HX  91
EDEN PRAIRIE   PTSUNNY   87  75  67 S14       29.85S HX  96
6HR MIN TEMP:  87; 6HR MAX TEMP:  92;

SOUTH ST PAUL  PTSUNNY   87  74  66 SE7       29.86S HX  95
LAKE ELMO      CLOUDY    84  77  79 SE7       29.88F HX  94
$$
MNZ001>005-007-008-013>017-022>024-027-028-220100-
   Northwest Minnesota

CITY           SKY/WX    TMP DP  RH WIND       PRES   REMARKS
BEMIDJI        PTSUNNY   87  75  68 SE9       29.78F HX  96
HALLOCK        CLOUDY    77  64  65 N17G23    29.76R
ROSEAU         CLOUDY    79  64  61 NE9       29.78F
WARROAD        CLOUDY    79  64  61 NE9       29.79F
THIEF RVR FALL PTSUNNY   86  73  66 E7        29.72F HX  93
CROOKSTON      PTSUNNY   88  75  66 E8        29.67F HX  97
FOSSTON        PTSUNNY   88  73  62 SE6       29.73F HX  96
DETROIT LAKES  PTSUNNY   84  73  70 SE16      29.74F HX  91
MOORHEAD       CLOUDY    86  81  84 S7        29.71S HX 102
PARK RAPIDS    CLOUDY    86  75  69 SE16      29.77F HX  95
$$
MNZ006-009>011-018-025>026-220100-
   North Central Minnesota

CITY           SKY/WX    TMP DP  RH WIND       PRES   REMARKS
BAUDETTE       PTSUNNY   81  67  62 NE8       29.79F
FLAG ISLAND    CLOUDY    75  66  73 N15       29.81S
INTL FALLS     MOSUNNY   85  74  69 CALM      29.80F HX  92
6HR MIN TEMP:  85; 6HR MAX TEMP:  90;

WASKISH        MOSUNNY   86  73  66 SE3       29.78F HX  93
BIG FORK       SUNNY    N/A N/A N/A S6        29.82F
LONGVILLE      PTSUNNY   84  75  74 SE8       29.80F HX  92
GRAND RAPIDS   CLOUDY    84  73  70 S9        29.83S HX  91
CRANE LAKE     SUNNY     88  72  58 CALM      29.83F HX  94
ORR            SUNNY     88  66  48 S5        29.81S HX  90
COOK           SUNNY     86  72  62 S7        29.85R HX  92
$$
MNZ012-019>021-037-220100-
   Northeast Minnesota

CITY           SKY/WX    TMP DP  RH WIND       PRES   REMARKS
DULUTH         MOSUNNY   86  73  65 S8        29.87S HX  93
6HR MIN TEMP:  85; 6HR MAX TEMP:  88;

ELY            SUNNY     88  66  48 S8        29.85S HX  90
HIBBING        PTSUNNY   85  73  67 S6        29.84S HX  91
EVELETH        MOSUNNY   82  70  65 S7        29.87R
DULUTH HARBOR  MOSUNNY   90  75  62 S10       29.83S HX 100
TWO HARBORS    SUNNY     84  72  65 E6        29.84F
SILVER BAY     SUNNY     82  73  74 SE5       29.85F
GRAND MARAIS     N/A     65  61  87 CALM      29.86F
G MARAIS ARPRT SUNNY     77  66  69 S6        29.94S
$$
MNZ029>031-032-039>041-046>048-054>057-064-220100-
   West Central Minnesota

CITY           SKY/WX    TMP DP  RH WIND       PRES   REMARKS
FERGUS FALLS   CLOUDY    86  73  66 S21       29.70F HX  93
WHEATON        PTSUNNY   84  75  74 S18       29.71F HX  92
MORRIS         CLOUDY    84  75  74 SE20G28   29.72F HX  92
ALEXANDRIA     CLOUDY    85  75  72 SE17      29.78F HX  93
ELBOW LAKE     FAIR      83  76  79 SE17      29.72F HX  92
WADENA         CLOUDY    82  75  78 SE10G17   29.76S
GLENWOOD       CLOUDY    84  75  74 S17       29.78S HX  92
APPLETON       PTSUNNY   86  73  66 S12G25    29.73R HX  93
BENSON         CLOUDY    84  75  74 S13G26    29.75S HX  92
MADISON        MOSUNNY   86  75  70 S17       29.74S HX  95
WILLMAR        FAIR      86  72  62 SE16G26   29.80F HX  92
$$
MNZ033>034-036-042>043-049>051-058-059-220100-
   Central Minnesota

CITY           SKY/WX    TMP DP  RH WIND       PRES   REMARKS
ST CLOUD       CLOUDY    88  76  67 SE8       29.82F HX  99
6HR MIN TEMP:  88; 6HR MAX TEMP:  94;

SAUK CENTRE    FAIR      85  76  74 SE15      29.78F HX  95
PAYNESVILLE    CLOUDY    82  73  76 E13G21    29.79F HAZE
AITKIN         PTSUNNY   86  75  70 SE8       29.82F HX  95
PINE RIVER     CLOUDY    84  75  74 SE10      29.82F HX  92
BRAINERD       PTSUNNY   84  75  74 SE9       29.81F HX  92
STAPLES        CLOUDY    82  73  74 SE8       29.78F
LONG PRAIRIE   FAIR      82  75  78 E14       29.78F
LITTLE FALLS   CLOUDY    84  73  70 SE10      29.80F HX  91
LITCHFIELD     CLOUDY    86  77  74 S7        29.83F HX  97
BUFFALO        CLOUDY    86  74  66 S9        29.85F HX  94
MAPLE LAKE     PTSUNNY   87  77  74 CALM      29.85F HX  98
$$
MNZ037-044-045-052-053-220100-
   East Central Minnesota

CITY           SKY/WX    TMP DP  RH WIND       PRES   REMARKS
PRINCETON      PTSUNNY   88  75  66 S7        29.86R HX  97
CAMBRIDGE      MOSUNNY   88  73  62 SE8       29.84S HX  96
RUSH CITY      PTSUNNY   84  74  72 S6        29.86F HX  91
MOOSE LAKE     CLOUDY    84  72  65 S7        29.84S
HINCKLEY       CLOUDY    84  77  79 S7        29.86S HX  94
CLOQUET        MOSUNNY   84  72  65 S7        29.87R
MCGREGOR       MOSUNNY   84  73  70 S10       29.85F HX  91
$$
MNZ071>073-080-081-089-090-097-098-220100-
   Southwest Minnesota

CITY           SKY/WX    TMP DP  RH WIND       PRES   REMARKS
MONTEVIDEO     PTSUNNY   84  75  74 S15G23    29.76F HX  92
GRANITE FALLS  PTSUNNY   84  74  70 SE17G23   29.79F HX  91
CANBY          SUNNY     84  74  73 S12G20    29.77S HX  91
MARSHALL       MOSUNNY   84  73  70 S16       29.78S HX  91
REDWOOD FALLS  CLOUDY    85  74  69 SE16      29.80F HX  92
OLIVIA         CLOUDY    82  72  69 SE14      29.81F
PIPESTONE      SUNNY     84  75  74 S14       29.80F HX  92
WINDOM         CLOUDY    84  73  70 SE10      29.85F HX  91
WORTHINGTON    CLOUDY    82  75  78 S8        29.86S
TRACY          PTSUNNY   85  75  73 S10G22    29.82S HX  93
SLAYTON        PTSUNNY   83  74  74 SE15G21   29.83F HX  91
$$
MNZ065>067-074>077-082>085-091>093-220100-
   South Central Minnesota

CITY           SKY/WX    TMP DP  RH WIND       PRES   REMARKS
MANKATO        PTSUNNY   84  72  65 S7G16     29.87R
NEW ULM        PTSUNNY   82  75  78 S8        29.84F
ST JAMES       PTSUNNY   84  73  70 SE6       29.86S HX  91
FAIRMONT       PTSUNNY   84  73  70 SE14      29.85F HX  91
GLENCOE        CLOUDY    86  73  64 SE7       29.85F HX  93
FARIBAULT      MOSUNNY   90  72  55 S12       29.88F HX  96
OWATONNA       MOSUNNY   84  73  70 S12G18    29.89F HX  91
WASECA         MOSUNNY   82  70  65 S10       29.90S
ALBERT LEA     MOSUNNY   86  75  70 S8        29.89F HX  95
$$
MNZ078>079-086>088-094>096-220100-
   Southeast Minnesota

CITY           SKY/WX    TMP DP  RH WIND       PRES   REMARKS
ROCHESTER      CLOUDY    83  72  69 S13       29.94S
6HR MIN TEMP:  83; 6HR MAX TEMP:  86;

RED WING       CLOUDY    88  72  58 SE9       29.87F HX  94
STANTON        MOSUNNY   85  73  66 S10G17    29.86F HX  92
DODGE CENTER   MOSUNNY   82  73  74 S10       29.92F
WINONA         SUNNY     86  72  62 S6        29.92R HX  92
AUSTIN         PTSUNNY   84  73  70 S8        29.91F HX  91
PRESTON        PTSUNNY   82  75  81 S12G18    29.96R
$$
ABBREVIATIONS USED IN REMARKS
   TC - TEMPERATURES IN CELSIUS
  WCI - WIND CHILL INDEX
   HX - HEAT INDEX
  VSB - VISIBILITY
$$


USA.gov is the U.S. government's official web portal to all federal, state and local government web resources and services.